Regional Weather Roundup
Issued by NWS

Home | Current Version | Previous Version | Text Only | Print | Product List | Glossary On
Versions: 1 2 3 4 5 6 7 8 9 10 11 12 13 14 15 16 17 18 19 20 21 22 23 24 25 26 27
000
ASUS45 KPSR 302210
RWRAZ

ARIZONA HOURLY REGIONAL WEATHER ROUNDUP
NATIONAL WEATHER SERVICE PHOENIX AZ
300 PM MST SAT JUL 30 2016

NOTE: FAIR INDICATES FEW OR NO CLOUDS BELOW 12,000 FEET WITH NO
SIGNIFICANT WEATHER AND/OR OBSTRUCTIONS TO VISIBILITY.

AZZ001>003-036-302300-
NORTHWEST ARIZONA

CITY           SKY/WX    TMP DP  RH WIND       PRES   REMARKS
BULLHEAD CITY  SUNNY    100  63  28 S18G31    29.76F HX 102
KINGMAN        PTSUNNY   92  56  29 SW17G24   29.98F
$$

AZZ004>008-015-016-018-302300-
NORTH CENTRAL ARIZONA

CITY           SKY/WX    TMP DP  RH WIND       PRES   REMARKS
GRAND CANYON   MOSUNNY   88  40  18 W8G16     30.19F
WILLIAMS       SUNNY     86  43  22 SW10G21   30.27F
PRESCOTT       MOSUNNY   92  47  21 W12G23    30.08F
FLAGSTAFF      PTSUNNY   79  48  33 E8        30.21F
PAYSON         MOSUNNY   88  54  31 SW10G18   30.11F
PAGE           PTSUNNY   90  47  22 W9        29.95S
$$

AZZ009>014-017-302300-
NORTHEAST ARIZONA

CITY           SKY/WX    TMP DP  RH WIND       PRES   REMARKS
WINSLOW        CLOUDY    89  47  23 SW18      30.04F
SAINT JOHNS    MOSUNNY   92  41  17 W12       30.06F
WINDOW ROCK    MOSUNNY   89  40  17 N13       30.12F
SHOW LOW       PTSUNNY   82  41  23 W6        30.18S
$$

AZZ023-302300-
GREATER PHOENIX AREA

CITY           SKY/WX    TMP DP  RH WIND       PRES   REMARKS
PHOENIX        MOSUNNY   99  65  32 SW12      29.79F HX 102
BUCKEYE        SUNNY     99  64  32 S14       29.81F HX 101
GLENDALE       MOSUNNY  100  63  28 SW9G17    29.82F HX 102
LUKE AFB       SUNNY    101  62  27 SW9       29.79F HX 103
DEER VALLEY    SUNNY     98  62  30 W10G20    29.81F
SCOTTSDALE     SUNNY     99  61  28 MISG      29.83F
MESA-FALCON    MOSUNNY  N/A N/A N/A S12       29.79F
MESA-GATEWAY   MOSUNNY   97  64  34 VRB3      29.83F
CHANDLER         N/A    N/A N/A N/A S12       29.80F
$$

AZZ027-028-302300-
SOUTHWEST MARICOPA COUNTY AND PINAL COUNTY

CITY           SKY/WX    TMP DP  RH WIND       PRES   REMARKS
CASA GRANDE    SUNNY     97  63  32 W12G18    29.85F
GILA BEND      FAIR      97  62  30 VRB7      29.80F
$$

AZZ503-504-507>509-302300-
SOUTHEAST ARIZONA

CITY           SKY/WX    TMP DP  RH WIND       PRES   REMARKS
TUCSON         SUNNY     94  62  34 W8        29.92F
DAVIS-MONTHAN  SUNNY     93  62  35 W6        29.90F
RYAN FIELD     SUNNY     93  63  36 SW3       29.91F
NOGALES        TSTM      80  70  71 SW6       30.01F
SIERRA VISTA   MOSUNNY   91  52  26 VRB3      30.06F
DOUGLAS        MOSUNNY   89  58  34 VRB6      30.00F
SAFFORD        SUNNY     97  52  21 VRB5      29.89F
$$

AZZ020-021-025-026-031-302300-
SOUTHWEST ARIZONA

CITY           SKY/WX    TMP DP  RH WIND       PRES   REMARKS
YUMA           MOSUNNY   97  71  42 S20       29.79F HX 104
$$

CAZ031-033-041-043-047-048-061-302300-
SOUTHERN CALIFORNIA

CITY           SKY/WX    TMP DP  RH WIND       PRES   REMARKS
DOWNTOWN L.A.  SUNNY     84  66  54 VRB3      29.82F
L.A. AIRPORT   MOSUNNY   77  66  68 W14       29.85S
SAN DIEGO      MOSUNNY   76  64  66 SW7       29.88S
BURBANK        SUNNY     91  66  43 S3        29.83F HAZE
ONTARIO        PTSUNNY   93  63  36 W16G24    29.83F
RIVERSIDE      MOSUNNY   93  63  36 W14       29.83R
PALM SPRINGS   CLOUDY    96  70  42 E17       29.79R HX 102
EL CENTRO NAS  MOSUNNY  101  68  34 SE10      29.76F HX 106
IMPERIAL       MOSUNNY  102  71  36 SE15G23   29.75F HX 111
BLYTHE         MOSUNNY   97  70  41 S13       29.79F HX 103
NEEDLES        MOSUNNY  101  59  24 S15       29.79F HX 101
$$

NVZ020-UTZ003-302300-
SOUTHERN NEVADA-UTAH

CITY           SKY/WX    TMP DP  RH WIND       PRES   REMARKS
LAS VEGAS      PTSUNNY  107  47  13 E8        29.74F HAZE    HX 103
SALT LAKE CITY CLOUDY    93  44  18 E12       29.93F
$$

NMZ009-TXZ055-302300-
NEW MEXICO-WEST TEXAS

CITY           SKY/WX    TMP DP  RH WIND       PRES   REMARKS
ALBUQUERQUE    PTSUNNY   92  42  17 W9        30.04F
EL PASO        MOSUNNY   94  55  26 S7        29.97F
$$


........................KEY........................
SKY/WX - SKY CONDITION/WEATHER
TMP    - TEMPERATURE IN FAHRENHEIT
DP     - DEW POINT IN FAHRENHEIT
RH     - RELATIVE HUMIDITY IN PERCENT
WIND   - DIRECTION AND SPEED IN MILES PER HOUR (MPH)
VRB    - VARIABLE WIND DIRECTION
PRES   - MEAN SEA LEVEL PRESSURE IN INCHES OF MERCURY
         F - FALLING PRESSURE   R - RISING PRESSURE
         S - STEADY PRESSURE
VSB    - VISIBILITY IN MILES
HX     - HEAT INDEX IN FAHRENHEIT
WCI    - WIND CHILL INDEX IN FAHRENHEIT
TC     - TEMPERATURE IN CELSIUS WHICH IS ALSO KNOWN AS
         TEMPERATURE IN CENTIGRADE
AFB    - AIR FORCE BASE
         LUKE AFB IS LUKE AIR FORCE BASE
         DAVIS-MONTHAN IS DAVIS-MONTHAN AIR FORCE BASE
NAS    - NAVAL AIR STATION
         EL CENTRO NAS IS EL CENTRO NAVAL AIR STATION
N/A    - NOT AVAILABLE





USA.gov is the U.S. government's official web portal to all federal, state and local government web resources and services.